EW7772 Weather Reports


Display with metric or nautical units.
time (UTC)temp
F
wind
direction
speed
MPH
gust
MPH
rain 1hr
in
rain 24hr
in
rain mn
in
humidity
%
barometer
mb
20260506181522 51 279 0.0 3.0 0.02 0.39 0.37 92 1008.1
20260506180026 51 292 0.0 3.0 0.02 0.39 0.37 91 1007.9
20260506174522 52 306 0.0 2.0 0.02 0.38 0.36 93 1007.9
20260506173022 53 293 0.0 0.0 0.02 0.37 0.35 94 1007.6
20260506171520 53 293 0.0 0.0 0.02 0.36 0.35 94 1007.6
20260506170021 53 293 0.0 1.0 0.02 0.36 0.35 94 1007.5
20260506164519 52 293 0.0 3.0 0.03 0.36 0.35 93 1007.3
20260506163025 53 294 0.0 2.0 0.02 0.35 0.34 93 1007.2
20260506161518 53 295 0.0 2.0 0.02 0.35 0.33 92 1007.1
20260506160017 53 290 0.0 3.0 0.01 0.34 0.32 92 1007.0
20260506154517 54 313 0.0 4.0 0.00 0.33 0.31 93 1006.8
20260506153016 54 304 0.0 6.0 0.02 0.33 0.31 93 1006.5
20260506151516 54 307 0.0 2.0 0.16 0.33 0.31 93 1006.6
20260506150016 53 306 0.0 2.0 0.30 0.33 0.31 93 1006.6
20260506144515 53 306 0.0 4.0 0.31 0.34 0.31 92 1006.4
20260506143023 53 293 0.0 3.0 0.28 0.31 0.28 86 1006.3
20260506141515 57 278 0.0 6.0 0.15 0.17 0.15 82 1006.1
20260506140014 61 75 0.0 1.0 0.02 0.04 0.02 78 1005.6
20260506134513 62 75 0.0 1.0 0.00 0.09 0.00 69 1005.5
20260506133012 63 71 0.0 1.0 0.00 0.09 0.00 70 1005.3
20260506131510 63 70 0.0 1.0 0.00 0.09 0.00 71 1005.3
20260506130009 61 70 0.0 1.0 0.00 0.09 0.00 71 1005.3
20260506124507 61 70 0.0 3.0 0.00 0.09 0.00 75 1005.5
20260506123007 61 81 0.0 1.0 0.00 0.09 0.00 72 1005.5
20260506121509 62 307 0.0 1.0 0.00 0.09 0.00 70 1005.5
20260506120008 62 307 0.0 1.0 0.00 0.09 0.00 71 1005.4
20260506114505 62 307 0.0 0.0 0.00 0.09 0.00 71 1005.6
20260506113006 62 307 0.0 1.0 0.00 0.09 0.00 67 1005.5
20260506111502 62 355 0.0 2.0 0.00 0.09 0.00 69 1005.7
20260506110001 62 286 0.0 1.0 0.00 0.09 0.00 68 1006.0
20260506104559 62 286 0.0 1.0 0.00 0.09 0.00 70 1006.2
20260506103059 62 286 0.0 1.0 0.00 0.09 0.00 68 1006.3
20260506101601 61 286 0.0 2.0 0.00 0.09 0.00 70 1006.4
20260506100114 61 286 0.0 1.0 0.00 0.09 0.00 70 1006.4
20260506094552 61 286 0.0 1.0 0.00 0.09 0.00 72 1006.5
20260506093051 61 286 0.0 2.0 0.00 0.09 0.00 70 1006.4
20260506091548 60 287 0.0 2.0 0.00 0.09 0.00 71 1006.4
20260506090048 60 284 0.0 2.0 0.00 0.09 0.00 71 1006.5
20260506084610 60 267 0.0 1.0 0.00 0.09 0.00 73 1006.4
20260506083044 59 115 0.0 0.0 0.00 0.09 0.00 74 1006.5
20260506081546 58 115 0.0 0.0 0.00 0.09 0.00 76 1006.6
20260506073041 56 115 0.0 0.0 0.00 0.09 0.00 83 1006.7
20260506071531 55 117 0.0 1.0 0.00 0.09 0.00 85 1006.7
20260506061522 51 128 0.0 1.0 0.00 0.09 0.00 92 1006.5
20260506044547 47 300 0.0 0.0 0.00 0.09 0.00 96 1006.9
20260506043015 46 279 0.0 0.0 0.00 0.09 0.00 96 1007.0
20260506041515 46 279 0.0 0.0 0.00 0.09 0.00 96 1007.0
20260506040014 46 279 0.0 0.0 0.00 0.09 0.00 96 1007.1
20260506034532 46 279 0.0 0.0 0.00 0.09 0.00 96 1007.2
20260506033011 46 279 0.0 0.0 0.00 0.09 0.00 95 1007.3
20260506031511 45 279 0.0 0.0 0.00 0.09 0.00 95 1007.4
20260506030011 46 279 0.0 0.0 0.00 0.09 0.00 95 1007.4
20260506024509 46 279 0.0 0.0 0.00 0.09 0.00 95 1007.3
20260506023006 46 279 0.0 0.0 0.00 0.09 0.00 95 1007.4
20260506021505 47 279 0.0 0.0 0.00 0.09 0.00 95 1007.5
20260506020004 47 279 0.0 0.0 0.00 0.09 0.00 95 1007.7
20260506014504 47 279 0.0 0.0 0.00 0.09 0.00 95 1007.9
20260506013003 47 278 0.0 0.0 0.00 0.09 0.00 95 1008.0
20260506011502 47 278 0.0 0.0 0.00 0.09 0.00 94 1007.7
20260506010104 48 278 0.0 0.0 0.00 0.09 0.00 95 1007.7
20260506004626 48 278 0.0 0.0 0.00 0.09 0.00 95 1007.7
20260506003110 48 278 0.0 0.0 0.00 0.09 0.00 94 1007.8
20260506001556 48 278 0.0 0.0 0.00 0.09 0.00 94 1008.2
20260506000051 49 278 0.0 0.0 0.00 0.09 0.00 94 1008.1
20260505234614 49 278 0.0 0.0 0.00 0.09 0.00 94 1008.4
20260505233049 50 278 0.0 0.0 0.00 0.09 0.00 94 1008.4
20260505231547 50 278 0.0 0.0 0.00 0.09 0.00 94 1008.4
20260505230045 51 278 0.0 0.0 0.00 0.09 0.00 94 1008.3
20260505224546 51 278 0.0 0.0 0.00 0.09 0.00 94 1008.4
20260505223042 51 278 0.0 0.0 0.00 0.09 0.00 94 1008.3
20260505221539 52 278 0.0 0.0 0.00 0.09 0.00 94 1008.2
20260505220054 52 278 0.0 0.0 0.00 0.09 0.00 94 1008.1
20260505214540 53 278 0.0 0.0 0.00 0.09 0.09 93 1008.2
20260505213035 54 278 0.0 0.0 0.00 0.09 0.09 94 1008.2
20260505211542 53 278 0.0 0.0 0.01 0.09 0.09 94 1008.3
20260505210034 54 278 0.0 0.0 0.01 0.09 0.09 93 1008.3
20260505204535 54 278 0.0 0.0 0.01 0.09 0.09 93 1008.2
20260505203033 54 278 0.0 0.0 0.01 0.09 0.09 93 1008.0
20260505201535 55 278 0.0 0.0 0.00 0.08 0.08 93 1007.8
20260505200034 55 278 0.0 0.0 0.00 0.08 0.08 93 1007.6
20260505194536 55 278 0.0 0.0 0.00 0.08 0.08 92 1007.5
20260505193039 55 278 0.0 0.0 0.00 0.08 0.08 91 1007.5
20260505191546 56 278 0.0 0.0 0.00 0.08 0.08 91 1007.4
20260505190033 56 278 0.0 0.0 0.01 0.08 0.08 90 1007.2
20260505184531 57 278 0.0 0.0 0.01 0.08 0.08 89 1007.2
20260505183030 58 278 0.0 0.0 0.01 0.08 0.08 87 1007.3